����������;��������(kVARh)
2017-12-18 00:00;7,35
2017-12-18 00:15;6,65
2017-12-18 00:30;7,3
2017-12-18 00:45;6,8
2017-12-18 01:00;9,45
2017-12-18 01:15;9,25
2017-12-18 01:30;10,5
2017-12-18 01:45;10,15
2017-12-18 02:00;11,55
2017-12-18 02:15;12,7
2017-12-18 02:30;11,15
2017-12-18 02:45;12,9
2017-12-18 03:00;12,5
2017-12-18 03:15;11,95
2017-12-18 03:30;10,7
2017-12-18 03:45;11,6
2017-12-18 04:00;9,75
2017-12-18 04:15;7,55
2017-12-18 04:30;9
2017-12-18 04:45;9,2
2017-12-18 05:00;8,75
2017-12-18 05:15;9
2017-12-18 05:30;10,65
2017-12-18 05:45;8,55
2017-12-18 06:00;9,25
2017-12-18 06:15;8,65
2017-12-18 06:30;10
2017-12-18 06:45;8,9
2017-12-18 07:00;13,2
2017-12-18 07:15;13,45
2017-12-18 07:30;39,75
2017-12-18 07:45;25,95
2017-12-18 08:00;9,95
2017-12-18 08:15;14,8
2017-12-18 08:30;20,65
2017-12-18 08:45;24,75
2017-12-18 09:00;31,15
2017-12-18 09:15;37,6
2017-12-18 09:30;39,2
2017-12-18 09:45;42,9
2017-12-18 10:00;41,05
2017-12-18 10:15;41,3
2017-12-18 10:30;40,1
2017-12-18 10:45;43,3
2017-12-18 11:00;42,4
2017-12-18 11:15;41,55
2017-12-18 11:30;42,9
2017-12-18 11:45;43,2
2017-12-18 12:00;44,15
2017-12-18 12:15;44
2017-12-18 12:30;45,6
2017-12-18 12:45;43,5
2017-12-18 13:00;45,05
2017-12-18 13:15;41,45
2017-12-18 13:30;43,1
2017-12-18 13:45;40,1
2017-12-18 14:00;39,65
2017-12-18 14:15;38,2
2017-12-18 14:30;38,25
2017-12-18 14:45;36,5
2017-12-18 15:00;35,45
2017-12-18 15:15;33,45
2017-12-18 15:30;33,7
2017-12-18 15:45;29,8
2017-12-18 16:00;30,05
2017-12-18 16:15;30,05
2017-12-18 16:30;31,8
2017-12-18 16:45;25,7
2017-12-18 17:00;24,95
2017-12-18 17:15;22,1
2017-12-18 17:30;21,95
2017-12-18 17:45;24,55
2017-12-18 18:00;23,15
2017-12-18 18:15;25,95
2017-12-18 18:30;25,25
2017-12-18 18:45;25,35
2017-12-18 19:00;27,1
2017-12-18 19:15;26,3
2017-12-18 19:30;24,85
2017-12-18 19:45;21,95
2017-12-18 20:00;16,65
2017-12-18 20:15;14
2017-12-18 20:30;14,55
2017-12-18 20:45;14,5
2017-12-18 21:00;15,15
2017-12-18 21:15;16,1
2017-12-18 21:30;21,45
2017-12-18 21:45;23,4
2017-12-18 22:00;18,05
2017-12-18 22:15;18,65
2017-12-18 22:30;17,95
2017-12-18 22:45;7,75
2017-12-18 23:00;7,95
2017-12-18 23:15;5,55
2017-12-18 23:30;5,55
2017-12-18 23:45;5,3
2017-12-19 00:00;6,9
2017-12-19 00:15;7,5
2017-12-19 00:30;8,2
2017-12-19 00:45;8,75
2017-12-19 01:00;10,5
2017-12-19 01:15;13,35
2017-12-19 01:30;12,75
2017-12-19 01:45;12,1
2017-12-19 02:00;10,65
2017-12-19 02:15;10,1
2017-12-19 02:30;8,9
2017-12-19 02:45;8,85
2017-12-19 03:00;10,2
2017-12-19 03:15;9,3
2017-12-19 03:30;9,95
2017-12-19 03:45;9,65
2017-12-19 04:00;10,25
2017-12-19 04:15;9,05
2017-12-19 04:30;9,75
2017-12-19 04:45;9,1
2017-12-19 05:00;14,65
2017-12-19 05:15;16
2017-12-19 05:30;15,45
2017-12-19 05:45;13,25
2017-12-19 06:00;14,4
2017-12-19 06:15;14,4
2017-12-19 06:30;15,65
2017-12-19 06:45;13,2
2017-12-19 07:00;13,75
2017-12-19 07:15;14,55
2017-12-19 07:30;40,75
2017-12-19 07:45;23,95
2017-12-19 08:00;8,2
2017-12-19 08:15;12,1
2017-12-19 08:30;23,05
2017-12-19 08:45;29,65
2017-12-19 09:00;31,2
2017-12-19 09:15;39,85
2017-12-19 09:30;38,1
2017-12-19 09:45;45,05
2017-12-19 10:00;47,65
2017-12-19 10:15;45
2017-12-19 10:30;54,6
2017-12-19 10:45;48,8
2017-12-19 11:00;46,05
2017-12-19 11:15;49,9
2017-12-19 11:30;50,15
2017-12-19 11:45;48,55
2017-12-19 12:00;52,3
2017-12-19 12:15;50,65
2017-12-19 12:30;51,05
2017-12-19 12:45;50,85
2017-12-19 13:00;48,05
2017-12-19 13:15;46,85
2017-12-19 13:30;43,3
2017-12-19 13:45;44,35
2017-12-19 14:00;52,45
2017-12-19 14:15;47,25
2017-12-19 14:30;44,95
2017-12-19 14:45;49,45
2017-12-19 15:00;41,35
2017-12-19 15:15;38,65
2017-12-19 15:30;38,8
2017-12-19 15:45;36,05
2017-12-19 16:00;35,35
2017-12-19 16:15;30,55
2017-12-19 16:30;31,65
2017-12-19 16:45;30,1
2017-12-19 17:00;33,45
2017-12-19 17:15;27,75
2017-12-19 17:30;25,9
2017-12-19 17:45;22,2
2017-12-19 18:00;21,65
2017-12-19 18:15;19,25
2017-12-19 18:30;24,3
2017-12-19 18:45;22,3
2017-12-19 19:00;22,25
2017-12-19 19:15;20,3
2017-12-19 19:30;20,15
2017-12-19 19:45;17,7
2017-12-19 20:00;16,85
2017-12-19 20:15;9,7
2017-12-19 20:30;11,7
2017-12-19 20:45;12,3
2017-12-19 21:00;13,55
2017-12-19 21:15;17,05
2017-12-19 21:30;15,7
2017-12-19 21:45;19,4
2017-12-19 22:00;19,55
2017-12-19 22:15;16,9
2017-12-19 22:30;15,55
2017-12-19 22:45;10
2017-12-19 23:00;7,05
2017-12-19 23:15;0,3
2017-12-19 23:30;0,45
2017-12-19 23:45;3,1
2017-12-20 00:00;7,6
2017-12-20 00:15;8
2017-12-20 00:30;9,6
2017-12-20 00:45;10
2017-12-20 01:00;11
2017-12-20 01:15;12,85
2017-12-20 01:30;12,65
2017-12-20 01:45;10,6
2017-12-20 02:00;11,05
2017-12-20 02:15;13,3
2017-12-20 02:30;16
2017-12-20 02:45;15,8
2017-12-20 03:00;16,35
2017-12-20 03:15;16,4
2017-12-20 03:30;16,65
2017-12-20 03:45;15,8
2017-12-20 04:00;16,55
2017-12-20 04:15;16,25
2017-12-20 04:30;17,05
2017-12-20 04:45;16,4
2017-12-20 05:00;14,55
2017-12-20 05:15;15,4
2017-12-20 05:30;14,6
2017-12-20 05:45;15,75
2017-12-20 06:00;15,95
2017-12-20 06:15;16,1
2017-12-20 06:30;23,75
2017-12-20 06:45;22,05
2017-12-20 07:00;20,6
2017-12-20 07:15;19
2017-12-20 07:30;31,55
2017-12-20 07:45;9,4
2017-12-20 08:00;14,55
2017-12-20 08:15;14,25
2017-12-20 08:30;17,2
2017-12-20 08:45;23,8
2017-12-20 09:00;28,7
2017-12-20 09:15;34,4
2017-12-20 09:30;69,2
2017-12-20 09:45;43,95
2017-12-20 10:00;41,75
2017-12-20 10:15;44,2
2017-12-20 10:30;47,55
2017-12-20 10:45;49,7
2017-12-20 11:00;49,7
2017-12-20 11:15;50,55
2017-12-20 11:30;51,5
2017-12-20 11:45;76,05
2017-12-20 12:00;57,45
2017-12-20 12:15;51,85
2017-12-20 12:30;47,05
2017-12-20 12:45;46,8
2017-12-20 13:00;41,8
2017-12-20 13:15;40
2017-12-20 13:30;36,8
2017-12-20 13:45;36,9
2017-12-20 14:00;39,6
2017-12-20 14:15;39,7
2017-12-20 14:30;40,65
2017-12-20 14:45;41,6
2017-12-20 15:00;69,15
2017-12-20 15:15;38,4
2017-12-20 15:30;37,5
2017-12-20 15:45;33,9
2017-12-20 16:00;29,6
2017-12-20 16:15;27,9
2017-12-20 16:30;26
2017-12-20 16:45;25,5
2017-12-20 17:00;25,15
2017-12-20 17:15;25,05
2017-12-20 17:30;20,75
2017-12-20 17:45;16,75
2017-12-20 18:00;14,7
2017-12-20 18:15;15,55
2017-12-20 18:30;16,7
2017-12-20 18:45;16,9
2017-12-20 19:00;15,65
2017-12-20 19:15;14,3
2017-12-20 19:30;12,8
2017-12-20 19:45;10,75
2017-12-20 20:00;2,55
2017-12-20 20:15;2,4
2017-12-20 20:30;5,2
2017-12-20 20:45;13,5
2017-12-20 21:00;12,15
2017-12-20 21:15;10,45
2017-12-20 21:30;9
2017-12-20 21:45;10,6
2017-12-20 22:00;11,2
2017-12-20 22:15;14
2017-12-20 22:30;14,7
2017-12-20 22:45;15,25
2017-12-20 23:00;17,75
2017-12-20 23:15;14,7
2017-12-20 23:30;7,25
2017-12-20 23:45;8,1
2017-12-21 00:00;7,45
2017-12-21 00:15;8,6
2017-12-21 00:30;10,2
2017-12-21 00:45;12,1
2017-12-21 01:00;12,7
2017-12-21 01:15;14,2
2017-12-21 01:30;14,65
2017-12-21 01:45;13,35
2017-12-21 02:00;14,1
2017-12-21 02:15;13,45
2017-12-21 02:30;13,45
2017-12-21 02:45;14,7
2017-12-21 03:00;15,45
2017-12-21 03:15;12,8
2017-12-21 03:30;13,5
2017-12-21 03:45;13,9
2017-12-21 04:00;16,55
2017-12-21 04:15;14,15
2017-12-21 04:30;13,15
2017-12-21 04:45;13,95
2017-12-21 05:00;12,7
2017-12-21 05:15;12,15
2017-12-21 05:30;12,35
2017-12-21 05:45;12,95
2017-12-21 06:00;12,3
2017-12-21 06:15;13,55
2017-12-21 06:30;13,95
2017-12-21 06:45;19,1
2017-12-21 07:00;21,05
2017-12-21 07:15;18,75
2017-12-21 07:30;38,8
2017-12-21 07:45;33,8
2017-12-21 08:00;30,3
2017-12-21 08:15;32,3
2017-12-21 08:30;33,1
2017-12-21 08:45;38,7
2017-12-21 09:00;33,4
2017-12-21 09:15;45,25
2017-12-21 09:30;38,75
2017-12-21 09:45;44
2017-12-21 10:00;45,35
2017-12-21 10:15;44,15
2017-12-21 10:30;51,1
2017-12-21 10:45;52,8
2017-12-21 11:00;48,25
2017-12-21 11:15;57,85
2017-12-21 11:30;52,4
2017-12-21 11:45;51,8
2017-12-21 12:00;63,75
2017-12-21 12:15;64,15
2017-12-21 12:30;67,3
2017-12-21 12:45;60,1
2017-12-21 13:00;55,9
2017-12-21 13:15;62,35
2017-12-21 13:30;63,95
2017-12-21 13:45;51,95
2017-12-21 14:00;54,95
2017-12-21 14:15;54
2017-12-21 14:30;49,45
2017-12-21 14:45;51,75
2017-12-21 15:00;58,35
2017-12-21 15:15;54,45
2017-12-21 15:30;50,8
2017-12-21 15:45;50,15
2017-12-21 16:00;49,05
2017-12-21 16:15;43,05
2017-12-21 16:30;39,25
2017-12-21 16:45;37,7
2017-12-21 17:00;36,7
2017-12-21 17:15;33,25
2017-12-21 17:30;32,15
2017-12-21 17:45;29,8
2017-12-21 18:00;27,4
2017-12-21 18:15;25,65
2017-12-21 18:30;29,5
2017-12-21 18:45;26
2017-12-21 19:00;25,45
2017-12-21 19:15;21,8
2017-12-21 19:30;18,5
2017-12-21 19:45;24,9
2017-12-21 20:00;24,25
2017-12-21 20:15;21,3
2017-12-21 20:30;22,2
2017-12-21 20:45;21,35
2017-12-21 21:00;20,25
2017-12-21 21:15;19,55
2017-12-21 21:30;18,4
2017-12-21 21:45;16,75
2017-12-21 22:00;17,5
2017-12-21 22:15;19,4
2017-12-21 22:30;19,9
2017-12-21 22:45;19,65
2017-12-21 23:00;15,9
2017-12-21 23:15;17,3
2017-12-21 23:30;17,2
2017-12-21 23:45;15,7
2017-12-22 00:00;10,85
2017-12-22 00:15;10,65
2017-12-22 00:30;10,35
2017-12-22 00:45;11,35
2017-12-22 01:00;11,25
2017-12-22 01:15;13,95
2017-12-22 01:30;14,9
2017-12-22 01:45;15,2
2017-12-22 02:00;14,5
2017-12-22 02:15;16,5
2017-12-22 02:30;16,85
2017-12-22 02:45;16,15
2017-12-22 03:00;17,5
2017-12-22 03:15;16,65
2017-12-22 03:30;17,7
2017-12-22 03:45;16,75
2017-12-22 04:00;18,4
2017-12-22 04:15;16,7
2017-12-22 04:30;16,8
2017-12-22 04:45;17,3
2017-12-22 05:00;15,3
2017-12-22 05:15;16,15
2017-12-22 05:30;17,55
2017-12-22 05:45;16,7
2017-12-22 06:00;18,15
2017-12-22 06:15;16,8
2017-12-22 06:30;17,65
2017-12-22 06:45;15,45
2017-12-22 07:00;15,45
2017-12-22 07:15;15,65
2017-12-22 07:30;46,7
2017-12-22 07:45;36,5
2017-12-22 08:00;18,85
2017-12-22 08:15;26,85
2017-12-22 08:30;31,45
2017-12-22 08:45;28,1
2017-12-22 09:00;35,75
2017-12-22 09:15;37,85
2017-12-22 09:30;37,6
2017-12-22 09:45;39,2
2017-12-22 10:00;41,2
2017-12-22 10:15;44,35
2017-12-22 10:30;43,8
2017-12-22 10:45;38,55
2017-12-22 11:00;47,55
2017-12-22 11:15;42,45
2017-12-22 11:30;39,95
2017-12-22 11:45;52,8
2017-12-22 12:00;51,85
2017-12-22 12:15;48,5
2017-12-22 12:30;51,1
2017-12-22 12:45;52,1
2017-12-22 13:00;46,35
2017-12-22 13:15;38,1
2017-12-22 13:30;33,8
2017-12-22 13:45;26,05
2017-12-22 14:00;24,85
2017-12-22 14:15;23,75
2017-12-22 14:30;21,55
2017-12-22 14:45;18,55
2017-12-22 15:00;14,6
2017-12-22 15:15;12,15
2017-12-22 15:30;9,05
2017-12-22 15:45;10,35
2017-12-22 16:00;4,25
2017-12-22 16:15;3,2
2017-12-22 16:30;1,7
2017-12-22 16:45;2,15
2017-12-22 17:00;0,25
2017-12-22 17:15;1,95
2017-12-22 17:30;0,25
2017-12-22 17:45;0
2017-12-22 18:00;0
2017-12-22 18:15;0
2017-12-22 18:30;0
2017-12-22 18:45;0
2017-12-22 19:00;0
2017-12-22 19:15;0
2017-12-22 19:30;0
2017-12-22 19:45;0,05
2017-12-22 20:00;0,1
2017-12-22 20:15;0,05
2017-12-22 20:30;0
2017-12-22 20:45;0,15
2017-12-22 21:00;0,05
2017-12-22 21:15;0
2017-12-22 21:30;0,75
2017-12-22 21:45;1,2
2017-12-22 22:00;1,4
2017-12-22 22:15;3,7
2017-12-22 22:30;5,05
2017-12-22 22:45;0,05
2017-12-22 23:00;0
2017-12-22 23:15;0
2017-12-22 23:30;0
2017-12-22 23:45;0
2017-12-23 00:00;0
2017-12-23 00:15;0
2017-12-23 00:30;0
2017-12-23 00:45;0,95
2017-12-23 01:00;0
2017-12-23 01:15;1,1
2017-12-23 01:30;2,35
2017-12-23 01:45;2,9
2017-12-23 02:00;3,05
2017-12-23 02:15;5,65
2017-12-23 02:30;6,55
2017-12-23 02:45;6,8
2017-12-23 03:00;7,7
2017-12-23 03:15;7,2
2017-12-23 03:30;6,2
2017-12-23 03:45;7,8
2017-12-23 04:00;9,4
2017-12-23 04:15;8,35
2017-12-23 04:30;8,4
2017-12-23 04:45;8,75
2017-12-23 05:00;8,9
2017-12-23 05:15;8,6
2017-12-23 05:30;6,95
2017-12-23 05:45;7,8
2017-12-23 06:00;8,85
2017-12-23 06:15;9,75
2017-12-23 06:30;10
2017-12-23 06:45;3,55
2017-12-23 07:00;2,55
2017-12-23 07:15;1,4
2017-12-23 07:30;1,6
2017-12-23 07:45;0,45
2017-12-23 08:00;0,3
2017-12-23 08:15;0
2017-12-23 08:30;0
2017-12-23 08:45;0
2017-12-23 09:00;0
2017-12-23 09:15;0
2017-12-23 09:30;0
2017-12-23 09:45;0
2017-12-23 10:00;0,1
2017-12-23 10:15;0,1
2017-12-23 10:30;0,05
2017-12-23 10:45;0
2017-12-23 11:00;0,35
2017-12-23 11:15;0,05
2017-12-23 11:30;0,4
2017-12-23 11:45;0,65
2017-12-23 12:00;0,3
2017-12-23 12:15;0,3
2017-12-23 12:30;0,75
2017-12-23 12:45;0,15
2017-12-23 13:00;0,55
2017-12-23 13:15;0,2
2017-12-23 13:30;0,05
2017-12-23 13:45;0
2017-12-23 14:00;0
2017-12-23 14:15;0
2017-12-23 14:30;0
2017-12-23 14:45;0
2017-12-23 15:00;0
2017-12-23 15:15;0
2017-12-23 15:30;0
2017-12-23 15:45;0
2017-12-23 16:00;0
2017-12-23 16:15;0
2017-12-23 16:30;0
2017-12-23 16:45;0
2017-12-23 17:00;0,05
2017-12-23 17:15;0
2017-12-23 17:30;0
2017-12-23 17:45;0
2017-12-23 18:00;0
2017-12-23 18:15;0
2017-12-23 18:30;0,25
2017-12-23 18:45;0,1
2017-12-23 19:00;0,9
2017-12-23 19:15;1,9
2017-12-23 19:30;0,9
2017-12-23 19:45;0,5
2017-12-23 20:00;0,3
2017-12-23 20:15;0,35
2017-12-23 20:30;0,75
2017-12-23 20:45;0,85
2017-12-23 21:00;1,45
2017-12-23 21:15;2,05
2017-12-23 21:30;3,95
2017-12-23 21:45;4,35
2017-12-23 22:00;0,65
2017-12-23 22:15;2,7
2017-12-23 22:30;3,45
2017-12-23 22:45;3,6
2017-12-23 23:00;6,55
2017-12-23 23:15;7,85
2017-12-23 23:30;0,6
2017-12-23 23:45;0,85
2017-12-24 00:00;0,5
2017-12-24 00:15;0,25
2017-12-24 00:30;0
2017-12-24 00:45;0
2017-12-24 01:00;0
2017-12-24 01:15;0
2017-12-24 01:30;0,1
2017-12-24 01:45;0
2017-12-24 02:00;0,3
2017-12-24 02:15;0,05
2017-12-24 02:30;0,65
2017-12-24 02:45;0,05
2017-12-24 03:00;0,8
2017-12-24 03:15;0,7
2017-12-24 03:30;0,5
2017-12-24 03:45;0,7
2017-12-24 04:00;0,85
2017-12-24 04:15;0,8
2017-12-24 04:30;0,25
2017-12-24 04:45;0,3
2017-12-24 05:00;0,3
2017-12-24 05:15;0,15
2017-12-24 05:30;0
2017-12-24 05:45;0
2017-12-24 06:00;0,25
2017-12-24 06:15;0
2017-12-24 06:30;0
2017-12-24 06:45;0
2017-12-24 07:00;0,05
2017-12-24 07:15;0,15
2017-12-24 07:30;0,1
2017-12-24 07:45;0,3
2017-12-24 08:00;0,15
2017-12-24 08:15;0
2017-12-24 08:30;0,85
2017-12-24 08:45;0,35
2017-12-24 09:00;0
2017-12-24 09:15;0,05
2017-12-24 09:30;0
2017-12-24 09:45;0
2017-12-24 10:00;0,1
2017-12-24 10:15;0
2017-12-24 10:30;0
2017-12-24 10:45;0
2017-12-24 11:00;0,05
2017-12-24 11:15;0
2017-12-24 11:30;0,05
2017-12-24 11:45;0
2017-12-24 12:00;0,1
2017-12-24 12:15;0,1
2017-12-24 12:30;0,2
2017-12-24 12:45;0
2017-12-24 13:00;0,1
2017-12-24 13:15;0,1
2017-12-24 13:30;0,15
2017-12-24 13:45;0,05
2017-12-24 14:00;0,15
2017-12-24 14:15;0,35
2017-12-24 14:30;0
2017-12-24 14:45;0,4
2017-12-24 15:00;1,15
2017-12-24 15:15;2,35
2017-12-24 15:30;0,4
2017-12-24 15:45;0,7
2017-12-24 16:00;0,3
2017-12-24 16:15;0,15
2017-12-24 16:30;0,4
2017-12-24 16:45;0,05
2017-12-24 17:00;0
2017-12-24 17:15;0,1
2017-12-24 17:30;0
2017-12-24 17:45;0
2017-12-24 18:00;0
2017-12-24 18:15;0
2017-12-24 18:30;0
2017-12-24 18:45;0
2017-12-24 19:00;0
2017-12-24 19:15;0
2017-12-24 19:30;0
2017-12-24 19:45;0
2017-12-24 20:00;0
2017-12-24 20:15;0
2017-12-24 20:30;0
2017-12-24 20:45;0
2017-12-24 21:00;0
2017-12-24 21:15;0
2017-12-24 21:30;0
2017-12-24 21:45;0,15
2017-12-24 22:00;0,15
2017-12-24 22:15;0,85
2017-12-24 22:30;2,45
2017-12-24 22:45;3,05
2017-12-24 23:00;0
2017-12-24 23:15;0
2017-12-24 23:30;0
2017-12-24 23:45;0

